Location: Newark
(41.7772°N, 74.7403°W)
Time: 06:01:22
(UTC+00:00)

Transit 2A - Visible Passes

Search period start: 28 May 2020 00:00
Search period end: 07 June 2020 00:00
Orbit: 593 x 965 km, 66.7° (Epoch: 27 May)

Date Brightness Start Highest point End Pass type
(mag) Time Alt. Az. Time Alt. Az. Time Alt. Az.
28 May 8.1 02:18:25 10° N 02:23:08 22° NE 02:27:43 11° E visible
28 May 6.3 04:00:51 10° NNW 04:07:06 84° WSW 04:08:11 63° SSE visible
28 May 8.4 05:46:27 10° WNW 05:48:40 14° W 05:48:40 14° W visible
29 May 8.4 01:44:40 10° N 01:48:38 17° NE 01:52:44 10° E visible
29 May 6.5 03:26:42 10° NNW 03:32:56 73° ENE 03:34:49 47° SE visible
29 May 8.0 05:11:10 10° WNW 05:15:18 20° W 05:15:18 20° W visible
30 May 8.6 01:11:04 10° N 01:14:05 14° NE 01:17:09 10° ENE visible
30 May 6.9 02:52:37 10° NNW 02:58:42 54° NE 03:01:29 32° ESE visible
30 May 7.5 04:36:25 10° NW 04:41:42 29° WSW 04:41:58 29° WSW visible
31 May 7.3 02:18:36 10° NNW 02:24:25 40° NE 02:28:12 21° ESE visible
31 May 7.1 04:01:54 10° NW 04:07:43 41° WSW 04:08:41 38° SW visible
01 Jun 7.7 01:44:39 10° NNW 01:50:05 31° NE 01:54:57 13° ESE visible
01 Jun 6.7 03:27:32 10° NW 03:33:40 57° WSW 03:35:26 43° SSW visible
02 Jun 8.0 01:10:46 10° N 01:15:40 24° NE 01:20:41 10° E visible
02 Jun 6.4 02:53:18 10° NNW 02:59:34 79° WSW 03:02:15 37° SSE visible
02 Jun 8.5 04:39:17 10° WNW 04:41:55 13° W 04:42:44 13° WSW visible
03 Jun 6.5 02:19:08 10° NNW 02:25:25 78° ENE 02:29:05 27° SE visible
03 Jun 8.1 04:03:48 10° WNW 04:08:03 19° WSW 04:09:34 18° WSW visible
04 Jun 6.8 01:45:03 10° NNW 01:51:12 57° NE 01:55:58 18° SE visible
04 Jun 7.8 03:28:58 10° NW 03:34:07 27° WSW 03:36:28 22° SW visible
05 Jun 7.2 01:11:01 10° NNW 01:16:56 43° NE 01:22:54 10° ESE visible
05 Jun 7.4 02:54:24 10° NW 03:00:09 38° WSW 03:03:24 23° SSW visible
06 Jun 7.0 02:20:01 10° NW 02:26:08 53° WSW 02:30:23 20° S visible
